• In Netherlands
  • List of Countries
  • For 7 days
  • Water Temperature
  • Satellite Maps
  • Weather Map
  • Weather Widgets
  • user-avatar
    Login

    Hourly Weather Newcastle

    Today, 17 January, Tuesday

    Time Temperature Precipitation Wind Pressure Humidity
    00:00 +21°C° 0 mm 4 mps 760 mmHg 96%
    01:00 +20°C° 0 mm 3 mps 760 mmHg 99%
    02:00 +20°C° 0 mm 3 mps 760 mmHg 99%
    03:00 +19°C° 0 mm 3 mps 759 mmHg 99%
    04:00 +19°C° 0 mm 2 mps 759 mmHg 99%
    05:00 +21°C° 0 mm 2 mps 759 mmHg 91%
    06:00 +24°C° 0 mm 2 mps 760 mmHg 83%
    07:00 +26°C° 0 mm 2 mps 760 mmHg 75%
    08:00 +30°C° 0 mm 2 mps 760 mmHg 61%
    09:00 +35°C° 0 mm 2 mps 759 mmHg 48%
    10:00 +39°C° 0 mm 3 mps 759 mmHg 34%
    11:00 +40°C° 0 mm 3 mps 758 mmHg 30%
    12:00 +43°C° 0 mm 3 mps 758 mmHg 26%
    13:00 +45°C° 0 mm 4 mps 757 mmHg 21%
    14:00 +43°C° 0 mm 4 mps 757 mmHg 25%
    15:00 +41°C° 0 mm 5 mps 756 mmHg 29%
    16:00 +40°C° 0 mm 5 mps 756 mmHg 33%
    17:00 +37°C° 0 mm 5 mps 756 mmHg 38%
    18:00 +36°C° 0 mm 5 mps 756 mmHg 42%
    19:00 +34°C° 0 mm 5 mps 756 mmHg 46%
    20:00 +33°C° 0 mm 5 mps 756 mmHg 49%
    21:00 +32°C° 0 mm 4 mps 757 mmHg 52%
    22:00 +30°C° 0 mm 4 mps 757 mmHg 54%
    23:00 +32°C° 0 mm 4 mps 756 mmHg 53%

    Tomorrow, 18 January, Wednesday

    Time Temperature Precipitation Wind Pressure Humidity
    00:00 +32°C° 0 mm 4 mps 756 mmHg 51%
    01:00 +32°C° 0 mm 4 mps 755 mmHg 50%
    02:00 +32°C° 0 mm 4 mps 755 mmHg 50%
    03:00 +32°C° 0 mm 4 mps 755 mmHg 49%
    04:00 +32°C° 0 mm 4 mps 754 mmHg 49%
    05:00 +33°C° 0 mm 5 mps 755 mmHg 47%
    06:00 +34°C° 0 mm 5 mps 755 mmHg 45%
    07:00 +35°C° 0 mm 6 mps 755 mmHg 43%
    08:00 +37°C° 0 mm 5 mps 755 mmHg 38%
    09:00 +40°C° 0 mm 5 mps 755 mmHg 32%
    10:00 +43°C° 0 mm 5 mps 755 mmHg 27%
    11:00 +43°C° 0 mm 5 mps 754 mmHg 26%
    12:00 +44°C° 0 mm 4 mps 754 mmHg 25%
    13:00 +44°C° 0 mm 4 mps 753 mmHg 23%
    14:00 +42°C° 0 mm 4 mps 753 mmHg 30%
    15:00 +40°C° 0 mm 4 mps 753 mmHg 36%
    16:00 +37°C° 0 mm 5 mps 753 mmHg 42%
    17:00 +34°C° 0.1 mm 5 mps 754 mmHg 54%
    18:00 +30°C° 0.1 mm 6 mps 755 mmHg 67%
    19:00 +26°C° 0.1 mm 6 mps 757 mmHg 79%
    20:00 +26°C° 0.1 mm 6 mps 757 mmHg 80%
    21:00 +25°C° 0.1 mm 5 mps 758 mmHg 82%
    22:00 +25°C° 0.1 mm 5 mps 759 mmHg 84%
    23:00 +23°C° 0.1 mm 4 mps 759 mmHg 83%

    Day after tomorrow, 19 January, Thursday

    Time Temperature Precipitation Wind Pressure Humidity
    00:00 +23°C° 0.1 mm 4 mps 759 mmHg 83%
    01:00 +22°C° 0.1 mm 4 mps 759 mmHg 82%
    02:00 +22°C° 0 mm 4 mps 759 mmHg 81%
    03:00 +22°C° 0 mm 4 mps 759 mmHg 80%
    04:00 +22°C° 0 mm 3 mps 758 mmHg 79%
    05:00 +22°C° 0 mm 3 mps 759 mmHg 78%
    06:00 +22°C° 0 mm 3 mps 759 mmHg 77%
    07:00 +22°C° 0 mm 3 mps 759 mmHg 76%
    08:00 +24°C° 0 mm 3 mps 759 mmHg 73%
    09:00 +24°C° 0 mm 3 mps 759 mmHg 71%
    10:00 +24°C° 0 mm 3 mps 760 mmHg 69%
    11:00 +25°C° 0 mm 3 mps 759 mmHg 69%
    12:00 +25°C° 0 mm 3 mps 759 mmHg 69%
    13:00 +25°C° 0 mm 3 mps 758 mmHg 69%
    14:00 +25°C° 0 mm 4 mps 758 mmHg 70%
    15:00 +25°C° 0 mm 4 mps 757 mmHg 70%
    16:00 +25°C° 0 mm 4 mps 757 mmHg 70%
    17:00 +25°C° 0 mm 4 mps 757 mmHg 72%
    18:00 +23°C° 0 mm 5 mps 757 mmHg 73%
    19:00 +23°C° 0 mm 5 mps 757 mmHg 75%
    20:00 +23°C° 0 mm 5 mps 758 mmHg 76%
    21:00 +22°C° 0 mm 5 mps 758 mmHg 77%
    22:00 +22°C° 0 mm 5 mps 758 mmHg 78%
    23:00 +22°C° 0 mm 5 mps 757 mmHg 79%

    20 January, Friday

    Time Temperature Precipitation Wind Pressure Humidity
    00:00 +22°C° 0 mm 5 mps 757 mmHg 80%
    01:00 +22°C° 0 mm 5 mps 756 mmHg 81%
    02:00 +22°C° 0 mm 5 mps 756 mmHg 82%
    03:00 +22°C° 0 mm 5 mps 755 mmHg 83%
    04:00 +22°C° 0 mm 5 mps 755 mmHg 85%
    05:00 +23°C° 0 mm 5 mps 754 mmHg 82%
    06:00 +25°C° 0 mm 5 mps 754 mmHg 79%
    07:00 +25°C° 0 mm 5 mps 754 mmHg 77%
    08:00 +27°C° 0.3 mm 5 mps 754 mmHg 69%
    09:00 +30°C° 0.3 mm 5 mps 753 mmHg 62%
    10:00 +33°C° 0.3 mm 5 mps 753 mmHg 55%
    11:00 +35°C° 0.4 mm 6 mps 752 mmHg 49%
    12:00 +38°C° 0.4 mm 6 mps 751 mmHg 43%
    13:00 +40°C° 0.4 mm 6 mps 750 mmHg 38%
    14:00 +39°C° 0.8 mm 5 mps 750 mmHg 44%
    15:00 +36°C° 0.8 mm 5 mps 749 mmHg 50%
    16:00 +34°C° 0.8 mm 4 mps 749 mmHg 56%
    17:00 +34°C° 2 mm 4 mps 749 mmHg 60%
    18:00 +33°C° 2 mm 3 mps 749 mmHg 64%
    19:00 +31°C° 2 mm 3 mps 749 mmHg 68%
    20:00 +30°C° 0.1 mm 4 mps 750 mmHg 71%
    21:00 +29°C° 0.1 mm 4 mps 750 mmHg 74%
    22:00 +29°C° 0.1 mm 4 mps 750 mmHg 78%
    23:00 +28°C° 0.4 mm 5 mps 751 mmHg 81%

    21 January, Saturday

    Time Temperature Precipitation Wind Pressure Humidity
    00:00 +27°C° 0.4 mm 5 mps 751 mmHg 85%
    01:00 +26°C° 0.4 mm 6 mps 751 mmHg 89%
    02:00 +24°C° 0.1 mm 6 mps 752 mmHg 88%
    03:00 +23°C° 0.1 mm 6 mps 753 mmHg 86%
    04:00 +22°C° 0.1 mm 6 mps 753 mmHg 85%
    05:00 +22°C° 0 mm 6 mps 754 mmHg 82%
    06:00 +23°C° 0 mm 5 mps 755 mmHg 79%
    07:00 +23°C° 0 mm 5 mps 756 mmHg 75%
    08:00 +25°C° 0 mm 5 mps 757 mmHg 68%
    09:00 +26°C° 0 mm 5 mps 757 mmHg 61%
    10:00 +28°C° 0 mm 5 mps 757 mmHg 54%
    11:00 +28°C° 0 mm 5 mps 757 mmHg 54%
    12:00 +28°C° 0 mm 5 mps 757 mmHg 54%
    13:00 +28°C° 0 mm 5 mps 757 mmHg 54%
    14:00 +27°C° 0 mm 5 mps 757 mmHg 54%
    15:00 +27°C° 0 mm 5 mps 757 mmHg 55%
    16:00 +27°C° 0 mm 5 mps 757 mmHg 56%
    17:00 +26°C° 0 mm 4 mps 758 mmHg 63%
    18:00 +24°C° 0 mm 3 mps 759 mmHg 70%
    19:00 +22°C° 0 mm 3 mps 759 mmHg 77%
    20:00 +21°C° 0 mm 2 mps 760 mmHg 84%
    21:00 +19°C° 0 mm 2 mps 760 mmHg 91%
    22:00 +18°C° 0 mm 2 mps 761 mmHg 97%
    23:00 +18°C° 0 mm 2 mps 760 mmHg 97%

    22 January, Sunday

    Time Temperature Precipitation Wind Pressure Humidity
    00:00 +18°C° 0 mm 2 mps 760 mmHg 97%
    01:00 +18°C° 0 mm 2 mps 760 mmHg 97%
    02:00 +18°C° 0 mm 2 mps 760 mmHg 97%
    03:00 +18°C° 0 mm 1 mps 760 mmHg 97%
    04:00 +18°C° 0 mm 1 mps 760 mmHg 97%
    05:00 +20°C° 0 mm 1 mps 760 mmHg 90%
    06:00 +22°C° 0 mm 1 mps 761 mmHg 83%
    07:00 +23°C° 0 mm 1 mps 761 mmHg 76%
    08:00 +25°C° 0 mm 1 mps 761 mmHg 66%
    09:00 +27°C° 0 mm 2 mps 761 mmHg 57%
    10:00 +28°C° 0 mm 2 mps 761 mmHg 48%
    11:00 +29°C° 0 mm 3 mps 761 mmHg 46%
    12:00 +30°C° 0 mm 3 mps 760 mmHg 43%
    13:00 +32°C° 0 mm 4 mps 760 mmHg 41%
    14:00 +30°C° 0 mm 4 mps 760 mmHg 43%
    15:00 +30°C° 0 mm 4 mps 760 mmHg 45%
    16:00 +29°C° 0 mm 4 mps 759 mmHg 47%
    17:00 +28°C° 0 mm 4 mps 760 mmHg 54%
    18:00 +26°C° 0 mm 4 mps 760 mmHg 62%
    19:00 +23°C° 0 mm 4 mps 761 mmHg 69%
    20:00 +22°C° 0 mm 4 mps 761 mmHg 75%
    21:00 +21°C° 0 mm 4 mps 761 mmHg 81%
    22:00 +20°C° 0 mm 3 mps 762 mmHg 87%
    23:00 +19°C° 0 mm 3 mps 761 mmHg 89%
    Show more